Tracking 29892 objects as of 21-Nov-2024
HD Live streaming from Space Station
objects crossing your sky now

PREFIRE-2

Track PREFIRE-2 now!
10-day predictions


NORAD ID: 59881
Int'l Code: 2024-099A
Perigee: 518.9 km
Apogee: 539.9 km
Inclination: 97.5 °
Period: 95.1 minutes
Semi major axis: 6900 km
RCS: Unknown
Launch date: May 25, 2024
Source: United States (US)
Launch site: Rocket Lab Launch Complex (RLLC)
Your satellite tracking list
Your tracking list is empty




NASA's NSSDC Master Catalog

Two Line Element Set (TLE):
1 59881U 24099A   24325.64617101  .00006407  00000-0  34976-3 0  9996
2 59881  97.4722 180.2353 0015243  47.5173 312.7345 15.14578605 27116
Source of the keplerian elements: AFSPC